GW2484 Weather Reports


Display with metric or nautical units.
time (UTC)temp
F
wind
direction
speed
MPH
gust
MPH
rain 1hr
in
rain 24hr
in
rain mn
in
humidity
%
barometer
mb
20260506140012 51 10 11.0 19.0 0.00 0.00 0.00 70 1017.2
20260506135510 51 47 4.0 15.0 0.00 0.00 0.00 72 1017.1
20260506135010 51 44 6.0 15.0 0.00 0.00 0.00 71 1016.9
20260506134524 51 27 5.0 15.0 0.00 0.00 0.00 73 1017.0
20260506134017 50 27 10.0 15.0 0.00 0.00 0.00 72 1017.2
20260506133508 50 15 8.0 15.0 0.00 0.00 0.00 73 1017.4
20260506133026 50 18 5.0 17.0 0.00 0.00 0.00 73 1017.1
20260506132510 50 33 10.0 17.0 0.00 0.00 0.00 74 1017.1
20260506132010 50 67 6.0 14.0 0.00 0.00 0.00 74 1017.1
20260506131524 50 11 8.0 14.0 0.00 0.00 0.00 74 1017.2
20260506131008 49 19 5.0 14.0 0.00 0.00 0.00 75 1017.2
20260506130513 49 23 7.0 15.0 0.00 0.00 0.00 75 1017.0
20260506130024 49 19 8.0 20.0 0.00 0.00 0.00 75 1016.8
20260506125508 49 21 8.0 20.0 0.00 0.00 0.00 75 1017.1
20260506125010 49 17 8.0 16.0 0.00 0.00 0.00 76 1017.0
20260506124524 49 44 9.0 19.0 0.00 0.00 0.00 76 1017.0
20260506124010 49 32 8.0 19.0 0.00 0.00 0.00 76 1017.0
20260506123509 49 16 7.0 18.0 0.00 0.00 0.00 76 1016.8
20260506123019 49 21 12.0 18.0 0.00 0.00 0.00 76 1017.0
20260506122510 49 22 10.0 16.0 0.00 0.00 0.00 75 1016.6
20260506122011 49 347 9.0 18.0 0.00 0.00 0.00 75 1016.7
20260506121517 49 292 11.0 18.0 0.00 0.00 0.00 75 1016.5
20260506121010 49 32 7.0 18.0 0.00 0.00 0.00 75 1016.3
20260506120514 49 47 5.0 17.0 0.00 0.00 0.00 75 1016.1
20260506120031 49 15 6.0 12.0 0.00 0.00 0.00 75 1016.3
20260506115510 49 39 4.0 15.0 0.00 0.00 0.00 75 1016.4
20260506115006 49 11 9.0 15.0 0.00 0.00 0.00 75 1016.1
20260506114514 49 25 2.0 12.0 0.00 0.00 0.00 74 1016.3
20260506114005 49 332 3.0 17.0 0.00 0.00 0.00 74 1016.4
20260506113507 49 49 9.0 17.0 0.00 0.00 0.00 74 1016.4
20260506113015 49 356 7.0 15.0 0.00 0.00 0.00 74 1016.3
20260506112503 49 19 9.0 15.0 0.00 0.00 0.00 74 1016.2
20260506112008 49 38 7.0 15.0 0.00 0.00 0.00 74 1016.2
20260506111509 49 29 7.0 14.0 0.00 0.00 0.00 74 1016.2
20260506111010 49 23 4.0 12.0 0.00 0.00 0.00 73 1016.1
20260506110507 49 25 5.0 12.0 0.00 0.00 0.00 73 1016.0
20260506110005 50 37 3.0 13.0 0.00 0.00 0.00 73 1015.8
20260506105514 50 17 6.0 13.0 0.00 0.00 0.00 72 1015.6
20260506105007 50 41 4.0 13.0 0.00 0.00 0.00 72 1015.6
20260506104504 50 27 6.0 13.0 0.00 0.00 0.00 72 1015.7
20260506104007 50 59 4.0 13.0 0.00 0.00 0.00 72 1015.5
20260506103504 50 5 4.0 12.0 0.00 0.00 0.00 72 1015.5
20260506103024 50 41 4.0 13.0 0.00 0.00 0.00 72 1015.3
20260506102506 50 351 6.0 13.0 0.00 0.00 0.00 72 1015.2
20260506102006 50 29 4.0 11.0 0.00 0.00 0.00 73 1015.3
20260506101522 50 46 4.0 11.0 0.00 0.00 0.00 73 1015.5
20260506101008 50 30 4.0 10.0 0.00 0.00 0.00 73 1015.4
20260506100504 50 31 5.0 14.0 0.00 0.00 0.00 73 1015.3
20260506100020 50 22 4.0 14.0 0.00 0.00 0.00 73 1015.3
20260506095506 50 19 3.0 7.0 0.00 0.00 0.00 73 1015.2
20260506095007 50 23 3.0 9.0 0.00 0.00 0.00 73 1015.1
20260506094516 50 45 3.0 12.0 0.00 0.00 0.00 73 1015.2
20260506094003 50 10 4.0 12.0 0.00 0.00 0.00 73 1015.0
20260506093510 50 321 2.0 10.0 0.00 0.00 0.00 73 1014.7
20260506093014 50 44 4.0 10.0 0.00 0.00 0.00 73 1014.5
20260506092508 50 29 4.0 10.0 0.00 0.00 0.00 73 1014.3
20260506092011 50 303 3.0 10.0 0.00 0.00 0.00 73 1014.3
20260506091515 50 24 4.0 10.0 0.00 0.00 0.00 73 1014.1
20260506091008 50 301 5.0 12.0 0.00 0.00 0.00 73 1013.9
20260506090508 50 43 7.0 12.0 0.00 0.00 0.00 73 1013.5
20260506090009 50 18 5.0 11.0 0.00 0.00 0.00 73 1013.4
20260506085508 50 342 4.0 11.0 0.00 0.00 0.00 73 1013.3
20260506085006 50 12 4.0 14.0 0.00 0.00 0.00 73 1013.2
20260506084527 50 5 5.0 14.0 0.00 0.00 0.00 73 1013.2
20260506084007 50 21 3.0 11.0 0.00 0.00 0.00 73 1013.2
20260506083504 50 41 2.0 12.0 0.00 0.00 0.00 72 1013.2
20260506083027 50 44 5.0 12.0 0.00 0.00 0.00 72 1013.1
20260506082511 50 9 5.0 10.0 0.00 0.00 0.00 72 1012.9
20260506082003 50 55 5.0 10.0 0.00 0.00 0.00 72 1013.0
20260506081524 50 359 5.0 13.0 0.00 0.00 0.00 72 1012.9
20260506081011 50 50 4.0 13.0 0.00 0.00 0.00 72 1012.7
20260506080511 50 13 5.0 13.0 0.00 0.00 0.00 72 1012.8
20260506073512 50 37 4.0 13.0 0.00 0.00 0.00 71 1012.9
20260506073016 50 46 7.0 17.0 0.00 0.00 0.00 70 1012.9
20260506072509 50 11 6.0 17.0 0.00 0.00 0.00 70 1013.0
20260506072010 50 6 7.0 11.0 0.00 0.00 0.00 70 1013.1
20260506071512 50 17 4.0 13.0 0.00 0.00 0.00 70 1013.3
20260506071010 50 2 8.0 13.0 0.00 0.00 0.00 70 1013.3
20260506070507 50 23 5.0 13.0 0.00 0.00 0.00 70 1013.4
20260506062508 50 41 8.0 15.0 0.00 0.00 0.00 70 1012.7
20260506062011 50 13 9.0 21.0 0.00 0.00 0.00 70 1012.8
20260506061522 50 29 8.0 21.0 0.00 0.00 0.00 70 1012.8
20260506061008 50 32 9.0 20.0 0.00 0.00 0.00 70 1012.7
20260506060509 50 40 11.0 20.0 0.00 0.00 0.00 70 1012.7
20260506051003 50 31 9.0 16.0 0.00 0.00 0.00 72 1013.2
20260506050504 50 35 5.0 13.0 0.00 0.00 0.00 72 1012.9
20260506045012 50 35 8.0 16.0 0.00 0.00 0.00 73 1012.7
20260506044527 50 29 9.0 16.0 0.00 0.00 0.00 73 1012.8
20260506044003 50 14 8.0 16.0 0.00 0.00 0.00 74 1012.7
20260506043513 50 58 5.0 12.0 0.00 0.00 0.00 74 1012.6
20260506043008 50 39 7.0 17.0 0.00 0.00 0.00 74 1012.4
20260506042502 50 17 6.0 17.0 0.00 0.00 0.00 74 1012.5
20260506042007 50 34 9.0 16.0 0.00 0.00 0.00 75 1012.6
20260506041504 50 34 7.0 19.0 0.00 0.00 0.00 75 1012.8
20260506041007 50 33 9.0 16.0 0.00 0.00 0.00 75 1012.9
20260506040506 50 40 2.0 20.0 0.00 0.00 0.00 75 1012.8
20260506040004 50 55 6.0 20.0 0.00 0.00 0.00 75 1012.7
20260506035508 50 15 8.0 16.0 0.00 0.00 0.00 75 1012.7
20260506035006 50 36 6.0 18.0 0.00 0.00 0.00 75 1012.5
20260506034504 51 56 10.0 18.0 0.00 0.00 0.00 75 1012.6
20260506034007 50 42 2.0 12.0 0.00 0.00 0.00 75 1012.8
20260506033505 51 32 4.0 15.0 0.00 0.00 0.00 74 1012.7
20260506033021 50 341 4.0 15.0 0.00 0.00 0.00 74 1012.7
20260506032506 50 40 4.0 12.0 0.00 0.00 0.00 74 1012.7
20260506032004 51 67 7.0 12.0 0.00 0.00 0.00 74 1012.7
20260506031518 51 38 5.0 15.0 0.00 0.00 0.00 75 1012.7
20260506031005 51 329 5.0 15.0 0.00 0.00 0.00 75 1012.6
20260506030509 50 49 7.0 15.0 0.00 0.00 0.00 75 1012.5
20260506030018 51 36 3.0 15.0 0.00 0.00 0.00 75 1012.3
20260506025508 51 40 6.0 15.0 0.00 0.00 0.00 75 1012.2
20260506025010 50 57 8.0 12.0 0.00 0.00 0.00 75 1012.1
20260506024513 50 30 6.0 15.0 0.00 0.00 0.00 75 1012.0
20260506024004 51 44 5.0 13.0 0.00 0.00 0.00 75 1011.9
20260506023506 50 43 6.0 13.0 0.00 0.00 0.00 76 1011.8
20260506023011 50 37 5.0 14.0 0.00 0.00 0.00 76 1011.6
20260506022511 50 56 6.0 14.0 0.00 0.00 0.00 76 1011.5
20260506022006 50 13 8.0 14.0 0.00 0.00 0.00 76 1011.4
20260506021508 50 24 4.0 13.0 0.00 0.00 0.00 76 1011.4
20260506021008 50 50 7.0 12.0 0.00 0.00 0.00 76 1011.3
20260506020507 50 6 6.0 22.0 0.00 0.00 0.00 75 1011.0
20260506020004 50 31 11.0 22.0 0.00 0.00 0.00 75 1010.9
20260506015507 50 360 5.0 18.0 0.00 0.00 0.00 75 1010.9
20260506015008 51 317 5.0 18.0 0.00 0.00 0.00 75 1010.6
20260506014525 51 19 5.0 11.0 0.00 0.00 0.00 75 1010.7
20260506014008 51 33 5.0 11.0 0.00 0.00 0.00 75 1010.7
20260506013507 51 23 4.0 13.0 0.00 0.00 0.00 75 1010.4
20260506013024 51 49 7.0 15.0 0.00 0.00 0.00 75 1010.2
20260506012504 51 10 8.0 15.0 0.00 0.00 0.00 75 1010.0
20260506012004 51 37 5.0 15.0 0.00 0.00 0.00 75 1009.9
20260506011525 51 51 7.0 15.0 0.00 0.00 0.00 74 1010.1
20260506011007 51 38 7.0 16.0 0.00 0.00 0.00 74 1010.3
20260506010507 51 76 7.0 18.0 0.00 0.00 0.00 74 1010.2
20260506010022 51 36 10.0 18.0 0.00 0.00 0.00 74 1010.1
20260506005502 51 360 7.0 18.0 0.00 0.00 0.00 73 1009.8
20260506005009 51 20 10.0 18.0 0.00 0.00 0.00 73 1010.1
20260506004523 51 23 6.0 16.0 0.00 0.00 0.00 73 1010.0
20260506004004 52 4 8.0 16.0 0.00 0.00 0.00 72 1009.9
20260506003509 52 33 7.0 17.0 0.00 0.00 0.00 72 1009.9
20260506003012 52 348 7.0 18.0 0.00 0.00 0.00 71 1010.1
20260506002510 52 63 9.0 17.0 0.00 0.00 0.00 71 1010.0
20260506002008 52 29 9.0 16.0 0.00 0.00 0.00 71 1010.0
20260506001508 52 19 6.0 16.0 0.00 0.00 0.00 71 1009.6
20260506001007 52 52 7.0 16.0 0.00 0.00 0.00 71 1009.6
20260506000507 52 25 7.0 19.0 0.00 0.00 0.00 71 1009.7
20260506000041 52 49 6.0 19.0 0.00 0.00 0.00 71 1009.6
20260505235506 52 18 5.0 24.0 0.00 0.00 0.00 70 1009.7
20260505235007 52 48 11.0 24.0 0.00 0.00 0.00 70 1009.7
20260505234526 52 24 11.0 17.0 0.00 0.00 0.00 71 1009.8
20260505234008 52 34 9.0 17.0 0.00 0.00 0.00 71 1009.7
20260505233504 52 343 10.0 17.0 0.00 0.00 0.00 70 1009.7
20260505233023 53 39 8.0 19.0 0.00 0.00 0.00 70 1009.6
20260505232511 53 21 11.0 19.0 0.00 0.00 0.00 70 1009.3
20260505232011 53 32 6.0 16.0 0.00 0.00 0.00 70 1009.4
20260505231528 53 26 9.0 17.0 0.00 0.00 0.00 70 1009.3
20260505231003 53 14 8.0 17.0 0.00 0.00 0.00 70 1009.3
20260505230506 53 20 8.0 16.0 0.00 0.00 0.00 70 1009.2
20260505230032 53 13 9.0 19.0 0.00 0.00 0.00 69 1009.1
20260505225504 53 23 10.0 20.0 0.00 0.00 0.00 69 1009.1
20260505225014 53 334 7.0 20.0 0.00 0.00 0.00 69 1009.0
20260505224516 53 33 4.0 19.0 0.00 0.00 0.00 69 1008.6
20260505224009 53 304 10.0 19.0 0.00 0.00 0.00 69 1008.5
20260505223509 53 42 7.0 18.0 0.00 0.00 0.00 70 1008.7
20260505223014 53 348 9.0 18.0 0.00 0.00 0.00 69 1008.8
20260505222511 53 344 7.0 19.0 0.00 0.00 0.00 70 1008.6
20260505222013 53 4 11.0 19.0 0.00 0.00 0.00 70 1008.3
20260505221512 54 44 9.0 23.0 0.00 0.00 0.00 71 1008.2
20260505221006 53 31 6.0 20.0 0.00 0.00 0.00 71 1008.2
20260505220506 54 20 13.0 20.0 0.00 0.00 0.00 70 1008.4
20260505220029 54 6 10.0 19.0 0.00 0.00 0.00 70 1008.5
20260505215506 54 48 8.0 18.0 0.00 0.00 0.00 70 1008.5
20260505215006 54 24 5.0 18.0 0.00 0.00 0.00 71 1008.3
20260505214526 54 67 10.0 18.0 0.00 0.00 0.00 71 1008.2
20260505214011 54 7 10.0 17.0 0.00 0.00 0.00 71 1008.2
20260505213507 54 25 9.0 17.0 0.00 0.00 0.00 71 1008.4
20260505213028 54 39 6.0 24.0 0.00 0.00 0.00 72 1008.6
20260505212506 54 18 9.0 24.0 0.00 0.00 0.00 72 1008.6
20260505212013 54 18 12.0 18.0 0.00 0.00 0.00 72 1008.5
20260505211530 55 15 8.0 20.0 0.00 0.00 0.00 73 1008.4
20260505211005 55 296 12.0 20.0 0.00 0.00 0.00 73 1008.1
20260505210508 55 50 4.0 17.0 0.00 0.00 0.00 74 1007.9
20260505210022 54 54 9.0 19.0 0.00 0.00 0.00 74 1007.7
20260505205508 54 40 11.0 19.0 0.00 0.00 0.00 75 1007.7
20260505205011 54 4 8.0 19.0 0.00 0.00 0.00 75 1007.8
20260505204517 55 20 7.0 19.0 0.00 0.00 0.00 1007.9
20260505204008 55 321 8.0 17.0 0.00 0.00 0.00 76 1008.3
20260505203508 55 8 8.0 17.0 0.00 0.00 0.00 76 1008.2
20260505203018 55 279 6.0 14.0 0.00 0.00 0.00 76 1008.2
20260505202511 55 314 7.0 15.0 0.00 0.00 0.00 75 1008.1
20260505202003 55 9 6.0 16.0 0.00 0.00 0.00 75 1007.9
20260505201513 56 303 7.0 18.0 0.00 0.00 0.00 1007.7
20260505201004 56 2 9.0 18.0 0.00 0.00 0.00 1007.6
20260505200508 56 37 6.0 17.0 0.00 0.00 0.00 1007.7
20260505200012 56 23 10.0 25.0 0.00 0.00 0.00 1007.8
20260505195504 56 40 10.0 25.0 0.00 0.00 0.00 76 1007.7
20260505195005 56 25 7.0 20.0 0.00 0.00 0.00 76 1007.7
20260505194529 56 42 6.0 20.0 0.00 0.00 0.00 76 1007.7
20260505194004 56 13 10.0 20.0 0.00 0.00 0.00 76 1007.6
20260505193507 56 22 8.0 18.0 0.00 0.00 0.00 76 1007.7
20260505193009 56 358 9.0 15.0 0.00 0.00 0.00 77 1007.8
20260505192507 56 17 7.0 15.0 0.00 0.00 0.00 77 1007.7
20260505192004 56 14 5.0 18.0 0.00 0.00 0.00 78 1007.5
20260505191503 56 325 4.0 18.0 0.00 0.00 0.00 78 1007.4
20260505191008 56 316 8.0 17.0 0.00 0.00 0.00 78 1007.4
20260505190503 56 6 7.0 19.0 0.00 0.00 0.00 78 1007.2
20260505190004 56 11 7.0 19.0 0.00 0.00 0.00 78 1007.3
20260505185508 56 30 4.0 19.0 0.00 0.00 0.00 79 1007.0
20260505185005 56 56 8.0 19.0 0.00 0.00 0.00 78 1007.1
20260505184521 56 9 7.0 21.0 0.00 0.00 0.00 78 1007.1
20260505184007 56 17 6.0 21.0 0.00 0.00 0.00 79 1007.1
20260505183503 56 256 6.0 14.0 0.00 0.00 0.00 79 1007.1
20260505183019 56 42 8.0 16.0 0.00 0.00 0.00 80 1007.1
20260505182513 56 354 8.0 16.0 0.00 0.00 0.00 80 1007.2
20260505182004 56 21 7.0 17.0 0.00 0.00 0.00 80 1007.1
20260505181518 56 351 5.0 21.0 0.00 0.00 0.00 80 1007.3
20260505181007 56 13 10.0 19.0 0.00 0.00 0.00 80 1007.2
20260505180507 56 13 8.0 18.0 0.00 0.00 0.00 80 1007.2
20260505180015 56 19 5.0 17.0 0.00 0.00 0.00 80 1007.1
20260505175503 57 15 8.0 17.0 0.00 0.00 0.00 80 1006.5
20260505175009 57 31 9.0 17.0 0.00 0.00 0.00 1006.0
20260505174518 56 348 8.0 19.0 0.00 0.00 0.00 80 1006.0
20260505174007 56 24 10.0 19.0 0.00 0.00 0.00 80 1006.1
20260505173507 57 31 8.0 20.0 0.00 0.00 0.00 80 1006.1
20260505173009 57 25 10.0 20.0 0.00 0.00 0.00 80 1006.1
20260505172510 57 40 9.0 18.0 0.00 0.00 0.00 80 1006.1
20260505172008 57 24 6.0 15.0 0.00 0.00 0.00 81 1006.2
20260505171511 57 18 8.0 13.0 0.00 0.00 0.00 81 1006.2
20260505171010 58 9 4.0 20.0 0.00 0.00 0.00 81 1006.0
20260505170508 58 41 9.0 20.0 0.00 0.00 0.00 81 1005.8
20260505170004 58 17 8.0 18.0 0.00 0.00 0.00 81 1005.6
20260505165507 58 22 8.0 17.0 0.00 0.00 0.00 81 1005.6
20260505165003 59 22 9.0 16.0 0.00 0.00 0.00 81 1005.5
20260505164526 59 15 7.0 19.0 0.00 0.00 0.00 81 1005.4
20260505164006 59 12 11.0 19.0 0.00 0.00 0.00 81 1005.2
20260505163503 59 33 11.0 20.0 0.00 0.00 0.00 81 1005.3
20260505163019 60 15 8.0 21.0 0.00 0.00 0.00 80 1005.2
20260505162507 60 356 7.0 21.0 0.00 0.00 0.00 80 1005.2
20260505162012 61 11 6.0 18.0 0.00 0.00 0.00 80 1005.4
20260505161518 61 19 6.0 18.0 0.00 0.00 0.00 79 1005.2
20260505161004 62 25 7.0 16.0 0.00 0.00 0.00 79 1004.9
20260505160511 62 31 9.0 18.0 0.00 0.00 0.00 78 1004.9
20260505153028 70 38 6.0 11.0 0.00 0.00 0.00 75 1004.2
20260505152511 71 331 2.0 6.0 0.00 0.00 0.00 76 1004.1
20260505152011 71 100 0.0 6.0 0.00 0.00 0.00 75 1004.0
20260505151510 71 80 3.0 6.0 0.00 0.00 0.00 75 1003.9
20260505151008 72 93 0.0 8.0 0.00 0.00 0.00 75 1003.8
20260505150506 72 133 2.0 8.0 0.00 0.00 0.00 74 1003.7
20260505140507 68 125 7.0 18.0 0.00 0.00 0.00 78 1003.2